Regional Weather Roundup
Issued by NWS

Home | Current Version | Previous Version | Graphics & Text | Print | Product List | Glossary On
Versions: 1 2 3 4 5 6 7 8 9 10 11 12 13 14 15 16 17 18 19 20 21 22 23 24 25 26 27 28 29 30 31 32 33 34 35 36 37 38 39 40 41 42 43 44 45 46 47 48 49 50
022
ASUS45 KTFX 230210
RWRMT
MONTANA REGIONAL WEATHER ROUNDUP
NATIONAL WEATHER SERVICE GREAT FALLS MT
700 PM MST SUN JAN 22 2017

NOTE: "FAIR" INDICATES FEW OR NO CLOUDS BELOW 12000 FEET WITH NO
SIGNIFICANT WEATHER AND/OR OBSTRUCTIONS TO VISIBILITY.

MTZ001>007-043-230300-
WEST OF THE DIVIDE

CITY           SKY/WX    TMP DP  RH WIND       PRES   REMARKS
KALISPELL      PTCLDY    23  21  92 SE8       29.61S WCI  14
MISSOULA       LGT SNOW  30  28  92 SW5       29.64S FOG
BUTTE          CLOUDY    27  22  81 CALM      29.62F
MULLAN PASS    LGT SNOW  24  22  91 SE5       29.51S FOG
ANACONDA         N/A     28  21  74 S3        29.63S
DEER LODGE       N/A     28  27  93 SW3       29.65F
EUREKA           N/A     21  18  86 CALM      29.66F
HAMILTON         N/A     28  27  93 NE3       29.63S
PLAINS           N/A     22  17  81 CALM      29.66
RONAN            N/A     25  23  91 CALM      29.68F VSB 0
$$

MTZ008-052>055-230300-
SOUTHWEST MONTANA

CITY           SKY/WX    TMP DP  RH WIND       PRES   REMARKS
BOZEMAN        CLOUDY    26  19  74 W5        29.65F
DILLON         CLOUDY   N/A N/A N/A CALM      29.62F
W YELLOWSTONE  LGT SNOW  25  23  93 S7        29.69F WCI  17
ENNIS          CLOUDY    28  21  74 S17G26    29.67F WCI  16
$$

MTZ009-010-012-014-046-048-049-054-230300-
EAST SLOPES AND CENTRAL MONTANA

CITY           SKY/WX    TMP DP  RH WIND       PRES   REMARKS
CUT BANK       FOG       23  22  96 CALM      29.73F VSB 1/4
GREAT FALLS    FOG       24  23  96 NE13      29.69F VSB 1/4 WCI  12
MALMSTROM AFB  CLOUDY    24  25 100 NE14      29.71F FOG     WCI  12
HELENA         CLOUDY    18  12  77 CALM      29.67F HAZE
AUGUSTA          N/A     22  22 100 NE13      29.67F WCI   9
BOWMANS CRNR   FOG       21  21  98 NE17      29.65R VSB 3/8 WCI   7
CHOTEAU        FOG       23  21  93 N8        29.73S VSB 1/4 WCI  14
CONRAD           N/A     23  23 100 NW6       29.78S WCI  16
POWER          FOG       22  22  97 NE9       29.70S VSB 3/8 WCI  12
RAYNESFORD     MOCLDY    29  25  85 SE13      29.68F WCI  18
ULM            MOCLDY    25  25  99 MISG      29.69R FOG
$$

MTZ011-013-016-021-045-047-050-051-230300-
NORTH CENTRAL MONTANA

CITY           SKY/WX    TMP DP  RH WIND       PRES   REMARKS
HAVRE          CLOUDY    28  26  92 E9        29.78F WCI  19
LEWISTOWN      CLOUDY    27  22  81 E5        29.68F
CHINOOK          N/A     28  25  86 N6        29.80F WCI  22
DENTON         SNOW      24  24  97 NE12      29.68F VSB 1/8 WCI  13
FORT BENTON      N/A     27  25  93 MISG      29.77F
GEYSER         MOCLDY    25  24  97 E5        29.69F FOG
GRASS RANGE    FOG       24  24  99 E6        29.70F VSB 3/8 WCI  17
JUDITH GAP       N/A     28  18  64 SE8       29.66F WCI  20
ROY            FOG       24  23  99 MISG      29.72F VSB 3/8
STANFORD       MOCLDY    24  23  96 NW6       29.67F WCI  17
WINIFRED       FRZ RAIN  24  24  99 E14       29.70F VSB 3/8 WCI  12
$$

MTZ017>020-022>027-061-062-230300-
NORTHEAST MONTANA

CITY           SKY/WX    TMP DP  RH WIND       PRES   REMARKS
GLASGOW        CLOUDY    30  25  81 SW3       29.81S
JORDAN           N/A     28  24  85 E3        29.80F
SIDNEY         CLOUDY    28  22  78 CALM      29.84F
WOLF POINT     CLOUDY    31  26  82 CALM      29.83F
PLENTYWOOD       N/A    N/A N/A N/A W8        29.80F
POPLAR           N/A     28  25  86 W5        29.83F
SCOBEY           N/A     27  19  71 CALM      29.78
$$

MTZ028>42-056>058-230300-
SOUTHCENTRAL AND SOUTHEAST MONTANA

CITY           SKY/WX    TMP DP  RH WIND       PRES   REMARKS
BAKER          CLOUDY    24  21  88 W7        29.82F WCI  16
BILLINGS       CLOUDY    30  21  69 N5        29.71F
LIVINGSTON     CLOUDY    32  17  54 E10       29.65F WCI  24
MILES CITY     CLOUDY    24  21  88 S3        29.82F
BIG TIMBER     CLOUDY    30  18  59 E10       29.69F WCI  21
EKALAKA          N/A     13   8  80 CALM      29.79  VSB 0
FORSYTH          N/A     21  21 100 E12       29.80F VSB 1/4 WCI   9
HARLOWTON      MOCLDY    28  22  76 E12       29.68F WCI  18
LAUREL           N/A     28  16  61 W5        29.71
ROUNDUP          N/A     25  19  77 N3        29.68F
$$

REGIONAL REPORTS...DAKOTAS

CITY           SKY/WX    TMP DP  RH WIND       PRES   REMARKS
WILLISTON      CLOUDY    29  23  78 W9        29.82F WCI  20
MINOT          CLOUDY    31  27  85 W8        29.77F WCI  23
DICKINSON      CLOUDY    26  23  88 W13       29.80S WCI  15
BEACH          CLOUDY    27  25  93 NW13      29.85F WCI  16
CROSBY         CLOUDY    27  27 100 W15       29.81S WCI  15
TIOGA          CLOUDY    27  27 100 W12       29.80F WCI  16
WATFORD CITY   CLOUDY    28  25  86 W9        29.82F WCI  20
BISMARCK       CLOUDY    32  27  81 W7        29.84S WCI  26
GRAND FORKS    CLOUDY    34  29  82 W5        29.76S
FARGO          CLOUDY    34  31  88 W6        29.79S FOG     WCI  29
BUFFALO SD       N/A     18  16  92 CALM      29.75F
RAPID CITY     CLEAR     27  21  78 CALM      29.83F
$$

REGIONAL REPORTS...WYOMING/IDAHO/WASHINGTON

CITY           SKY/WX    TMP DP  RH WIND       PRES   REMARKS
GILLETTE       CLEAR     30  20  66 S12       29.76F WCI  20
SHERIDAN       CLOUDY    22  17  81 VRB3      29.73F
BUFFALO WY     CLEAR     28  17  63 SW6       29.72F WCI  22
CODY           CLOUDY    23  15  71 NE6       29.70F WCI  16
YELLOWSTONE LA   N/A     19  17  92 CALM      29.70F
IDAHO FALLS    LGT SNOW  30  29  96 SE3       29.72F FOG
SALMON         CLOUDY    19  16  86 CALM      29.67S
BOISE          MOCLDY    37  31  78 SE10      29.65R WCI  30
SPOKANE        LGT SNOW  33  32  96 SE5       29.57S FOG
$$

REGIONAL REPORTS...ALBERTA

CITY           SKY/WX    TMP DP  RH WIND       PRES   REMARKS
EDMONTON       CLOUDY    16   9  73 NE2       29.89F
CALGARY        LGT SNOW  21  19  93 E5        29.78S FOG
LETHBRIDGE     CLOUDY    25  23  93 NE6       29.79R FOG     WCI  18
MEDICINE HAT   LGT SNOW  23  21  93 N7        29.82F FOG     WCI  15
WATERTON GATE    N/A     23  21  93 E5          N/A
MILK RIVER       N/A     23  23 100 E6          N/A  WCI  16
$$

REGIONAL REPORTS...SASKATCHEWAN

CITY           SKY/WX    TMP DP  RH WIND       PRES   REMARKS
SWIFT CURRENT  CLOUDY    19  19 100 NW12      29.77S WCI   7
REGINA         FLURRIES  23  19  86 W13       29.78S WCI  11
SASKATOON      FLURRIES  18  12  79 NW7       29.83S WCI   8
VAL MARIE        N/A     27  25  93 N3          N/A
ROCKGLEN         N/A     25  23  93 NW6         N/A  WCI  18
ASSINIBOIA       N/A     18  16  93 NE2         N/A
$$




USA.gov is the U.S. government's official web portal to all federal, state and local government web resources and services.